Wetbulb
73.59 72.72 72.55 74.68 71.99 72.18 70.99 70.75 68.37 63.58 67.33 68.73 67.54 72.20 74.40 73.13 71.77 73.71 71.44 69.73 68.43 68.64 68.82 68.55 68.48 69.66 70.74 71.21 71.46 71.62 71.87 73.09 74.18 74.53 74.95 75.41 76.02 76.61
72.26 72.26 72.59 72.76 71.81 71.64 69.86 69.83 70.19 68.86 65.30 67.58 68.41 69.78 71.53 71.76 70.45 71.65 71.53 68.57 68.29 67.71 66.27 66.45 67.12 67.92 67.99 69.02 70.18 70.41 70.60 71.49 72.50 72.89 73.46 73.71 74.04 74.86
71.76 70.98 70.85 71.34 71.65 70.91 69.82 68.27 66.32 66.10 65.58 64.56 66.36 68.62 70.16 70.13 70.18 72.05 72.56 71.97 71.57 68.20 67.39 66.58 66.08 66.32 66.84 66.84 67.45 68.22 69.13 69.78 70.60 71.66 72.17 72.52 72.81 73.40
70.64 69.99 68.63 67.61 64.05 61.57 61.46 61.68 63.32 64.68 65.07 65.15 67.05 68.74 68.28 69.10 69.42 69.61 69.68 70.37 71.14 69.75 67.95 65.86 65.57 65.35 65.21 65.40 65.48 65.75 66.17 67.29 68.14 69.25 70.30 71.22 71.75 72.09
68.29 67.55 66.79 66.58 64.63 61.47 57.01 55.48 55.88 56.82 56.97 60.54 61.01 65.70 66.31 66.03 66.95 67.01 66.22 65.80 66.70 67.58 65.42 65.08 65.04 65.80 65.71 64.93 63.61 62.97 62.61 63.40 64.35 65.25 66.61 67.81 69.40 70.48
65.81 65.01 63.87 63.08 62.38 62.26 60.96 59.08 56.40 55.18 54.73 53.59 55.14 56.27 57.69 61.47 63.50 63.61 63.49 66.56 66.31 67.55 66.73 64.86 65.42 67.03 66.15 64.38 63.86 64.15 62.86 61.04 60.48 60.92 61.67 63.41 65.78 67.31
63.04 61.90 60.13 58.29 56.77 56.95 57.78 58.26 58.64 57.58 57.07 57.04 54.10 55.13 54.55 54.85 56.05 57.96 58.25 61.31 63.00 63.31 61.72 62.94 64.40 66.20 67.36 64.81 66.17 66.41 63.86 62.20 61.29 59.33 58.91 59.09 60.56 62.51
59.66 60.20 60.31 57.93 57.73 56.17 55.41 55.47 56.39 57.39 56.63 55.83 55.26 55.07 56.95 57.54 56.48 55.02 55.43 55.55 54.21 60.25 60.25 61.36 64.02 63.19 63.68 63.88 64.09 63.40 62.51 61.77 61.21 60.26 59.13 58.55 58.85 59.57
59.37 59.61 58.23 58.47 58.89 58.57 58.67 58.29 58.71 56.68 55.84 56.73 55.91 56.65 56.63 58.17 58.55 57.50 56.39 55.40 55.30 58.21 59.88 56.96 59.76 59.06 61.23 61.72 61.78 61.61 61.07 60.64 59.73 58.89 58.73 58.39 58.02 57.96
60.34 60.00 59.02 58.74 57.84 55.33 56.42 56.83 57.38 57.87 58.33 57.12 56.76 56.63 57.31 57.98 58.32 58.29 57.80 57.15 57.11 57.49 60.64 54.98 58.81 58.13 60.39 61.26 61.05 60.77 59.36 58.54 58.05 57.57 57.41 57.25 56.12 55.37
59.78 59.43 58.34 58.15 52.15 52.09 54.99 55.02 55.86 56.43 57.71 56.34 55.38 55.44 54.95 54.64 55.11 55.25 54.17 54.60 54.55 56.17 59.15 57.44 57.92 57.85 59.08 59.75 60.94 60.52 58.89 57.44 56.99 57.29 57.54 56.85 55.14 54.13
59.63 59.83 56.18 54.82 51.72 51.45 53.73 54.01 53.34 54.98 55.32 55.50 56.26 57.00 57.05 57.57 56.75 56.72 55.01 53.27 54.25 54.42 59.15 56.55 57.06 57.52 56.09 60.59 61.25 62.23 63.07 57.84 56.98 56.41 56.75 56.35 54.31 64.42
56.77 56.84 57.40 53.14 51.69 51.26 51.13 53.97 53.98 53.36 53.27 54.30 55.15 54.78 55.71 56.36 56.55 57.03 57.05 53.79 52.03 53.43 58.07 56.94 56.28 56.89 56.73 56.89 59.41 60.97 61.35 61.66 62.52 61.67 54.19 53.66 53.79 57.99
55.90 55.89 56.37 51.21 50.22 50.47 51.73 52.89 52.00 52.10 54.17 52.91 52.67 52.26 52.02 51.84 52.88 54.56 56.07 56.22 56.32 55.88 57.89 57.89 54.45 54.13 53.25 54.28 55.29 59.29 60.81 61.85 61.93 61.50 62.48 59.29 53.22 53.60
55.07 54.47 52.02 50.90 50.45 51.83 52.98 52.60 52.62 52.68 51.54 51.64 51.71 52.01 52.41 52.96 55.17 55.38 55.96 57.43 57.38 57.64 57.77 58.19 55.47 55.63 55.02 53.15 54.17 55.28 56.43 58.85 60.83 61.29 61.74 62.21 63.37 64.59
55.78 55.47 54.16 53.21 52.56 52.74 53.18 54.26 53.91 53.83 52.26 51.58 51.12 52.97 52.83 52.28 51.50 52.69 51.25 52.13 53.05 52.91 56.72 57.94 57.46 56.59 54.13 54.14 55.37 54.18 55.34 55.00 59.54 61.80 62.44 62.95 63.58 64.24
49.89 53.51 53.21 53.06 52.18 52.78 53.65 53.73 54.22 53.83 52.63 52.76 52.08 51.85 51.13 49.96 49.39 50.45 50.12 49.83 50.20 50.33 50.92 53.56 57.46 57.10 55.80 55.93 53.68 55.01 54.33 55.31 58.53 59.69 61.44 59.92 61.06 61.94
50.65 51.96 52.21 52.85 51.90 53.03 52.79 52.79 52.86 52.29 52.25 52.28 51.98 51.56 52.02 49.52 48.53 49.30 49.78 49.28 48.13 48.35 49.39 50.75 52.17 52.32 52.95 55.03 56.58 54.32 54.60 54.82 56.40 59.22 60.07 58.25 58.88 61.44
51.31 52.60 52.33 53.02 51.97 52.85 53.21 52.70 52.10 53.00 53.29 52.95 52.22 51.78 52.21 51.69 50.76 50.24 50.78 49.06 47.40 47.22 47.99 49.32 49.37 50.30 48.42 47.93 53.73 54.68 54.09 55.10 56.16 55.77 57.37 58.23 57.72 59.93
54.05 54.10 53.02 53.44 53.75 53.21 53.30 53.20 53.69 54.17 53.71 52.81 52.77 52.05 51.91 51.32 50.15 50.72 50.68 50.31 50.41 48.29 46.76 48.13 48.37 48.48 48.14 48.99 49.75 53.41 50.94 55.32 55.00 54.57 55.55 57.90 59.06 56.70
54.72 54.37 54.60 54.43 54.08 54.54 54.58 53.70 53.72 53.19 53.05 52.28 51.91 51.99 52.36 52.01 50.99 51.46 51.23 47.38 48.09 47.33 44.96 45.53 48.23 51.37 50.78 50.77 48.22 50.72 54.46 50.88 53.29 55.07 55.68 54.22 54.08 56.23
55.01 54.64 54.76 54.59 54.37 53.19 51.30 50.41 49.50 49.16 48.90 48.85 49.13 49.13 49.98 51.09 51.18 50.67 49.80 48.15 48.45 48.19 45.08 47.79 49.50 49.19 47.92 47.18 46.69 50.23 51.53 54.01 52.94 51.74 52.16 52.51 52.98 51.96
54.98 54.66 54.47 54.53 52.90 50.34 49.49 49.07 48.60 48.44 48.34 48.52 48.54 48.67 49.06 48.67 49.95 50.35 48.53 49.52 49.58 46.79 47.68 46.81 47.86 48.38 46.92 46.55 46.83 47.72 48.90 50.04 51.54 53.08 54.91 54.27 52.31 52.55
MSLP
1012.01 1012.12 1012.09 1012.04 1012.15 1012.32 1012.54 1012.55 1012.64 1012.58 1012.55 1012.57 1012.61 1012.56 1012.17 1011.98 1012.44 1012.15 1012.97 1013.52 1013.55 1013.78 1013.91 1013.93 1013.89 1013.79 1013.80 1013.70 1013.61 1013.54 1013.49 1013.50 1013.43 1013.59 1013.92 1014.26 1014.56 1014.88
1011.95 1012.09 1012.22 1012.40 1012.28 1012.66 1012.68 1012.47 1012.42 1012.57 1012.73 1012.95 1012.79 1012.63 1011.88 1011.89 1012.48 1012.24 1012.20 1013.04 1013.13 1013.33 1013.49 1013.52 1013.47 1013.43 1013.37 1013.35 1013.20 1013.08 1012.95 1012.89 1012.87 1012.96 1013.10 1013.46 1013.82 1014.17
1012.47 1012.72 1012.73 1012.78 1012.65 1012.70 1012.63 1013.04 1013.08 1013.00 1012.77 1013.03 1013.06 1012.89 1012.60 1012.17 1011.79 1011.90 1011.99 1011.79 1011.71 1012.31 1012.59 1012.85 1013.05 1013.10 1012.95 1012.77 1012.66 1012.54 1012.39 1012.32 1012.29 1012.22 1012.48 1012.75 1012.94 1013.36
1012.85 1013.08 1013.33 1013.36 1013.97 1014.25 1014.22 1014.21 1014.25 1014.12 1014.08 1013.44 1013.18 1013.05 1012.98 1012.84 1012.76 1012.76 1012.38 1011.72 1011.34 1011.74 1012.10 1012.28 1012.36 1012.33 1012.22 1012.18 1012.12 1011.95 1011.77 1011.64 1011.64 1011.65 1011.57 1011.89 1012.23 1012.54
1013.72 1013.69 1013.70 1013.79 1014.37 1014.90 1015.33 1015.18 1015.30 1015.30 1014.91 1014.66 1014.25 1013.66 1013.32 1013.28 1012.83 1012.94 1012.89 1012.77 1012.31 1012.03 1011.90 1011.49 1011.39 1011.60 1011.68 1011.63 1011.56 1011.32 1011.11 1010.98 1010.97 1011.11 1011.07 1011.10 1011.37 1011.66
1014.44 1014.47 1014.64 1014.68 1014.79 1014.82 1014.94 1015.27 1015.57 1015.43 1015.25 1015.24 1015.06 1014.63 1014.46 1013.53 1012.88 1012.38 1012.17 1011.68 1011.35 1010.91 1011.19 1011.10 1010.81 1010.71 1010.91 1010.91 1010.88 1010.68 1010.53 1010.54 1010.52 1010.60 1010.81 1010.97 1010.84 1010.71
1014.76 1014.73 1015.20 1015.60 1015.81 1015.79 1014.99 1015.19 1015.07 1014.71 1014.38 1014.13 1014.45 1014.14 1014.29 1014.07 1013.55 1012.78 1012.07 1011.51 1010.94 1010.93 1010.56 1009.91 1009.49 1009.18 1008.99 1009.89 1009.67 1009.65 1009.84 1009.96 1010.07 1010.15 1010.30 1010.47 1010.66 1010.68
1014.93 1015.17 1015.35 1015.56 1015.68 1015.86 1015.91 1015.86 1015.78 1015.32 1015.02 1014.37 1013.74 1013.29 1013.39 1013.17 1013.08 1013.01 1012.13 1011.49 1010.55 1010.33 1009.98 1009.48 1009.24 1008.96 1008.83 1008.57 1008.50 1008.82 1009.33 1009.49 1009.65 1009.74 1009.83 1009.90 1009.97 1010.16
1015.29 1015.24 1014.97 1015.11 1015.65 1015.79 1015.61 1015.44 1015.06 1015.09 1015.09 1014.87 1014.23 1013.72 1013.42 1013.19 1013.05 1012.87 1012.50 1012.07 1011.37 1010.78 1010.44 1009.58 1009.39 1008.80 1008.54 1007.95 1008.17 1008.41 1008.71 1009.01 1009.20 1009.30 1009.36 1009.33 1009.43 1009.54
1015.47 1015.48 1015.53 1015.59 1016.01 1016.27 1015.84 1015.19 1014.79 1014.47 1014.12 1014.07 1013.94 1013.78 1013.71 1013.48 1013.27 1012.72 1012.44 1012.11 1011.74 1011.02 1010.47 1009.44 1009.10 1008.39 1007.97 1007.45 1007.49 1007.84 1008.07 1008.32 1008.50 1008.51 1008.61 1008.72 1008.69 1008.80
1015.46 1015.61 1015.74 1015.68 1016.38 1016.46 1015.81 1015.02 1014.53 1013.91 1013.32 1013.56 1013.69 1013.65 1013.52 1013.46 1013.49 1012.97 1011.87 1010.90 1009.76 1009.16 1009.12 1008.52 1008.21 1007.71 1007.37 1006.94 1006.70 1006.81 1007.20 1007.44 1007.65 1007.81 1007.78 1007.91 1008.12 1008.14
1014.75 1014.82 1015.39 1015.66 1016.10 1016.32 1015.88 1014.94 1014.11 1013.40 1013.27 1013.06 1012.77 1012.29 1012.08 1011.60 1012.01 1012.22 1011.65 1010.86 1009.87 1008.84 1008.39 1008.60 1008.07 1007.61 1006.80 1005.97 1005.73 1005.77 1005.77 1006.52 1006.89 1007.00 1007.09 1007.22 1007.45 1007.26
1014.33 1014.14 1014.37 1015.31 1015.63 1015.73 1015.62 1014.88 1014.04 1014.05 1013.33 1012.53 1011.58 1011.49 1011.33 1010.71 1010.41 1010.30 1010.70 1011.02 1010.50 1009.51 1008.79 1008.91 1008.46 1007.87 1007.34 1006.41 1005.97 1005.87 1005.85 1005.70 1005.73 1005.68 1005.96 1006.13 1006.38 1006.56
1014.65 1014.28 1014.58 1015.08 1015.28 1015.12 1014.74 1014.08 1013.95 1013.79 1012.48 1011.65 1011.33 1011.10 1010.87 1010.81 1010.64 1010.57 1010.52 1010.45 1010.16 1009.94 1009.59 1009.57 1009.20 1008.82 1008.21 1007.46 1006.44 1005.85 1005.40 1005.23 1005.28 1005.35 1005.11 1004.74 1005.30 1005.57
1014.81 1014.72 1014.85 1014.74 1014.41 1013.86 1013.17 1013.27 1013.07 1012.51 1012.13 1011.46 1010.91 1010.63 1010.44 1010.38 1010.30 1009.98 1009.72 1009.43 1009.46 1009.24 1008.86 1009.03 1009.02 1008.71 1008.13 1007.70 1006.94 1006.65 1006.18 1005.49 1005.04 1004.68 1004.66 1004.38 1004.07 1004.11
1014.23 1014.03 1014.17 1013.88 1013.47 1013.23 1012.58 1011.94 1011.72 1011.43 1011.24 1010.84 1010.74 1010.45 1010.41 1010.26 1009.91 1009.68 1009.51 1009.15 1008.94 1008.52 1008.26 1008.32 1008.37 1008.24 1007.66 1007.40 1007.18 1006.61 1006.32 1005.66 1004.90 1003.87 1003.58 1003.44 1003.46 1003.35
1015.02 1014.20 1013.20 1012.61 1012.38 1011.96 1011.31 1010.87 1010.68 1010.57 1010.33 1009.95 1009.99 1009.85 1009.81 1009.83 1009.72 1009.59 1009.34 1009.11 1008.78 1008.33 1007.91 1007.44 1007.12 1007.25 1007.28 1007.04 1006.43 1006.12 1005.76 1005.34 1004.59 1003.87 1003.57 1003.00 1002.84 1002.75
1014.58 1013.40 1012.16 1011.46 1011.26 1010.85 1010.43 1010.13 1009.94 1009.79 1009.52 1009.17 1008.95 1009.07 1008.85 1008.95 1009.05 1008.86 1008.68 1008.47 1008.25 1008.08 1007.84 1007.46 1006.70 1006.32 1006.09 1005.95 1006.10 1005.34 1005.17 1004.84 1004.47 1003.47 1002.87 1002.43 1001.94 1001.79
1013.58 1011.82 1011.05 1010.60 1010.33 1010.01 1009.59 1009.22 1008.84 1008.62 1008.39 1008.01 1007.72 1007.77 1007.76 1007.59 1007.92 1007.66 1007.46 1007.54 1007.55 1007.52 1007.34 1007.18 1006.84 1006.41 1005.71 1004.98 1004.56 1004.80 1004.57 1004.21 1003.66 1003.07 1002.56 1001.79 1001.78 1001.61
1011.09 1010.11 1009.62 1009.24 1008.94 1008.79 1008.47 1008.10 1007.68 1007.21 1006.90 1006.72 1006.52 1006.41 1006.35 1006.35 1006.75 1006.29 1005.99 1005.94 1005.94 1006.52 1006.68 1006.50 1006.27 1005.98 1005.71 1005.10 1004.43 1004.12 1004.40 1004.11 1003.42 1002.91 1002.38 1001.58 1001.21 1001.17
1009.68 1009.09 1008.57 1008.07 1007.72 1007.57 1007.43 1007.30 1007.14 1006.84 1006.57 1006.18 1005.78 1005.38 1005.18 1005.17 1005.40 1005.42 1005.22 1005.33 1005.76 1006.05 1005.84 1005.71 1005.43 1005.54 1005.46 1005.34 1004.95 1003.98 1003.15 1003.05 1003.29 1002.92 1002.42 1002.15 1001.79 1001.17
1008.82 1008.38 1007.88 1007.51 1007.45 1007.29 1007.19 1007.24 1006.87 1006.51 1006.07 1005.68 1005.40 1005.36 1005.02 1004.67 1004.23 1004.46 1004.54 1004.98 1004.96 1004.87 1005.22 1005.06 1005.05 1005.13 1005.20 1005.10 1004.57 1003.49 1002.72 1002.54 1002.54 1002.41 1002.40 1002.59 1002.14 1000.89
1008.34 1008.02 1007.70 1007.26 1007.24 1007.30 1007.21 1006.86 1006.40 1005.82 1005.35 1004.76 1004.39 1004.18 1004.05 1003.83 1003.89 1003.56 1004.01 1004.39 1004.16 1004.61 1004.60 1004.61 1004.71 1004.76 1004.78 1004.66 1004.34 1003.61 1003.23 1002.70 1002.02 1001.14 1000.79 1000.39 1000.53 1000.49
Wind_Speed
3 4 5 4 4 4 3 5 4 3 4 2 3 2 2 3 3 5 4 7 5 6 6 6 6 6 10 13 14 13 12 13 15 19 19 20 20 21
4 5 3 3 2 2 2 4 3 2 2 2 2 4 3 4 7 5 3 5 12 9 5 5 6 7 8 10 12 14 15 14 14 14 17 19 19 20
4 7 8 7 5 4 4 4 5 5 2 4 3 0 5 6 3 4 5 7 6 13 9 6 7 9 10 10 11 13 14 15 15 15 16 18 19 20
7 6 8 7 9 9 7 10 8 8 4 1 2 2 4 3 5 7 7 10 10 8 9 7 10 12 11 10 9 10 13 14 14 15 15 17 18 19
7 8 9 7 8 7 6 5 5 5 5 5 4 3 1 2 3 6 5 5 6 13 12 16 14 12 11 10 10 9 9 10 11 12 13 14 17 18
7 8 8 8 7 5 6 5 3 2 2 1 2 2 3 6 7 7 7 7 7 8 10 13 13 12 11 12 12 11 9 7 9 10 11 13 16 16
6 6 9 10 11 11 8 7 7 7 4 3 5 4 3 4 6 7 10 9 9 8 11 10 10 10 11 15 15 15 9 5 6 7 9 11 13 13
4 4 5 4 6 5 4 5 5 6 7 7 8 9 10 8 6 8 9 10 11 9 9 9 8 9 10 10 8 6 8 6 6 7 8 10 12 13
3 3 5 7 4 9 8 9 9 7 8 8 10 10 11 10 10 10 10 10 10 10 11 12 10 12 11 11 9 8 7 8 9 11 11 11 12 13
2 2 4 4 8 8 10 10 10 10 9 8 10 11 11 12 12 11 12 12 12 12 12 13 11 12 11 11 10 10 10 11 13 13 13 13 12 12
4 5 5 6 7 5 10 12 12 12 7 13 12 13 15 17 15 10 11 12 12 10 9 11 11 11 10 10 11 10 12 13 12 13 13 12 13 12
6 6 12 3 0 4 10 13 13 12 12 14 14 14 17 11 19 14 9 12 11 12 5 9 11 10 11 9 6 6 7 12 11 11 11 10 10 9
8 7 5 5 6 10 10 12 12 12 16 14 12 8 11 11 8 7 8 9 10 12 11 7 10 10 10 11 9 9 8 8 8 10 16 14 14 12
9 8 7 9 9 12 13 9 10 12 11 10 10 8 8 8 8 6 6 7 9 12 11 12 8 9 9 11 12 10 9 8 8 10 10 10 14 13
8 9 11 13 17 16 14 15 14 9 8 9 10 10 8 8 9 11 12 12 13 14 11 12 11 11 11 11 11 10 12 11 10 10 10 11 10 11
8 7 12 17 18 17 14 11 6 7 8 9 9 9 9 10 10 9 9 9 8 9 11 12 14 14 13 11 10 11 11 12 12 10 8 9 9 10
11 11 12 9 8 9 9 10 7 7 8 9 9 10 9 9 9 9 9 8 8 8 10 10 11 13 11 13 11 10 10 12 13 13 12 12 11 12
11 13 13 12 10 10 9 9 7 10 9 8 8 8 11 8 9 8 9 8 8 8 8 9 11 10 10 12 17 13 11 12 11 15 12 12 12 11
12 13 11 10 10 10 10 10 10 10 12 11 9 9 11 10 11 11 11 9 8 8 8 8 9 10 12 12 9 21 12 10 10 10 12 11 11 13
11 11 11 11 9 10 10 11 11 11 11 10 10 10 11 9 11 13 11 11 10 8 8 9 9 9 9 10 10 9 9 12 11 10 10 12 11 11
11 12 12 13 12 12 11 11 12 13 13 13 13 12 12 10 11 12 12 7 9 9 9 9 8 13 7 7 9 11 12 19 18 15 12 10 11 12
12 13 13 13 11 11 10 11 13 14 14 13 12 12 10 10 11 11 10 8 10 8 8 7 5 5 5 6 10 15 11 10 8 19 19 17 14 16
12 13 13 13 10 10 12 12 13 14 13 13 11 11 11 10 9 8 7 10 9 7 7 6 5 5 6 7 11 11 14 13 11 12 13 16 30 31
Wind_Direction
336 299 278 293 302 260 245 266 240 210 192 55 59 310 159 102 72 158 174 155 192 222 241 253 271 282 267 263 260 253 254 253 242 217 216 219 220 221
307 304 318 344 82 93 17 284 237 268 146 36 68 236 195 164 156 257 120 193 202 206 232 269 278 273 274 268 261 259 254 244 239 229 216 214 215 219
0 12 25 14 26 14 21 24 11 351 263 132 173 151 295 258 183 225 238 256 230 193 199 238 269 269 269 268 271 259 249 246 238 227 227 220 214 215
41 50 52 57 54 40 33 25 18 16 336 306 232 214 243 9 334 309 307 313 317 178 196 223 254 266 265 263 269 271 257 246 242 232 219 223 218 215
37 41 43 53 67 65 59 56 33 10 16 355 349 347 275 249 267 259 244 260 268 285 222 231 238 243 243 248 261 269 261 248 241 243 233 221 215 217
58 57 56 49 46 49 70 76 105 110 103 73 316 313 311 334 306 287 268 227 258 268 286 288 271 236 225 237 248 251 251 247 237 237 247 246 223 211
56 80 67 68 59 35 1 12 351 334 318 239 196 221 209 255 263 290 288 283 276 276 275 269 263 230 231 225 253 218 214 232 254 244 239 240 249 247
72 82 128 96 101 107 49 347 333 328 314 311 301 305 297 270 245 280 290 287 288 290 279 271 280 282 282 276 285 134 202 244 260 257 243 245 240 243
22 358 302 73 338 354 347 302 278 223 243 289 288 290 299 292 298 285 267 280 277 286 292 276 275 269 268 268 246 220 217 241 252 263 262 245 238 236
324 320 330 341 46 346 327 320 318 310 299 297 304 301 299 307 296 280 282 276 263 261 250 263 266 264 265 262 236 215 225 234 248 253 251 252 236 230
293 293 327 318 63 340 317 319 312 305 289 207 230 251 254 260 261 279 269 268 270 264 268 266 267 271 267 273 273 221 223 233 237 242 244 244 247 241
271 241 189 294 253 292 317 313 305 308 323 311 298 269 233 261 230 238 267 274 273 276 285 268 264 263 268 264 250 268 235 205 221 221 225 229 225 247
304 305 316 96 346 310 296 299 306 325 302 291 279 292 299 295 292 273 226 232 267 279 293 313 284 287 276 276 276 278 270 269 265 240 217 219 216 225
298 303 322 0 302 280 278 292 284 283 283 303 303 289 276 274 274 281 285 273 255 252 273 288 276 271 278 286 284 288 285 266 262 273 274 268 214 216
303 324 283 274 265 265 251 238 244 271 286 286 296 291 285 293 300 282 274 268 271 261 254 252 261 265 264 262 268 279 293 284 274 261 250 260 260 251
252 299 309 280 269 267 275 264 243 259 276 298 292 289 283 288 290 289 288 283 275 277 261 245 247 248 259 251 260 264 268 264 282 277 255 248 258 275
324 297 290 291 286 279 281 292 296 289 279 286 284 279 278 280 273 277 276 277 278 275 268 261 243 238 245 263 271 258 259 269 267 264 261 260 255 253
289 289 289 296 288 288 284 278 271 276 275 270 260 266 269 261 264 264 262 266 268 266 264 266 276 269 260 245 241 263 255 257 263 270 262 264 265 257
265 279 284 287 281 278 284 277 275 274 273 264 256 250 253 256 253 259 258 253 254 256 258 255 259 267 260 258 252 216 261 260 258 265 272 254 258 286
261 290 300 289 270 269 272 273 271 268 268 272 270 253 248 247 257 260 255 259 264 256 259 250 240 250 259 268 284 283 223 270 266 270 271 276 277 289
307 306 303 303 301 302 299 301 306 306 301 292 283 277 269 246 243 248 261 272 278 274 259 259 235 249 277 303 271 262 253 216 237 264 276 280 280 278
308 308 307 308 307 305 317 303 285 280 277 273 270 279 275 265 248 250 256 261 264 265 260 244 245 251 251 253 267 269 281 283 236 241 241 254 267 263
316 315 313 310 313 322 300 294 290 285 278 272 269 260 256 255 259 239 234 251 263 266 247 241 234 223 243 256 269 280 282 280 266 270 278 252 225 235